TimeEST,TemperatureF,Dew PointF,Humidity,Sea Level PressureIn,VisibilityMPH,Wind Direction,Wind SpeedMPH,Gust SpeedMPH,PrecipitationIn,Events,Conditions,WindDirDegrees,DateUTC
12:45 AM,35.6,33.8,93,29.98,6.0,North,6.9,-,0.02,Rain,Light Rain,360,2013-02-16 05:45:00
12:53 AM,36.0,33.1,89,29.96,6.0,North,5.8,-,0.02,Rain,Light Rain,360,2013-02-16 05:53:00
1:53 AM,35.1,33.1,92,29.95,6.0,NNE,3.5,-,0.02,Rain,Light Rain,20,2013-02-16 06:53:00
2:50 AM,35.6,33.8,93,29.95,5.0,NNW,3.5,-,0.00,Rain,Light Rain,340,2013-02-16 07:50:00
2:53 AM,35.1,33.1,92,29.94,5.0,NNW,3.5,-,0.00,Rain,Light Rain,330,2013-02-16 07:53:00
3:04 AM,35.6,33.8,93,29.95,5.0,North,3.5,-,0.00,Rain,Light Rain,360,2013-02-16 08:04:00
3:27 AM,33.8,32.0,93,29.93,4.0,North,3.5,-,0.01,,Overcast,360,2013-02-16 08:27:00
3:36 AM,33.8,33.8,100,29.93,5.0,Calm,Calm,-,0.01,,Overcast,0,2013-02-16 08:36:00
3:53 AM,34.0,33.1,96,29.93,5.0,NW,4.6,-,0.01,,Overcast,320,2013-02-16 08:53:00
4:53 AM,35.1,33.1,92,29.94,6.0,NNW,5.8,-,N/A,,Overcast,330,2013-02-16 09:53:00
5:53 AM,35.1,32.0,89,29.93,8.0,North,4.6,-,N/A,,Overcast,350,2013-02-16 10:53:00
7:41 AM,33.8,30.2,87,29.95,9.0,NNE,6.9,-,0.00,Snow,Light Snow,20,2013-02-16 12:41:00
7:53 AM,34.0,28.9,82,29.94,10.0,North,6.9,-,0.00,,Overcast,360,2013-02-16 12:53:00
8:24 AM,33.8,28.4,81,29.96,10.0,NNE,8.1,-,N/A,,Overcast,20,2013-02-16 13:24:00
8:53 AM,34.0,27.0,75,29.94,10.0,North,9.2,-,N/A,,Overcast,10,2013-02-16 13:53:00
9:53 AM,36.0,27.0,70,29.93,10.0,North,10.4,-,N/A,,Mostly Cloudy,10,2013-02-16 14:53:00
10:53 AM,37.0,25.0,62,29.92,10.0,North,9.2,-,N/A,,Overcast,10,2013-02-16 15:53:00
11:53 AM,37.0,21.9,54,29.90,10.0,NE,9.2,-,N/A,,Mostly Cloudy,40,2013-02-16 16:53:00
12:53 PM,37.0,24.1,59,29.88,10.0,NNW,10.4,-,N/A,,Overcast,340,2013-02-16 17:53:00
1:53 PM,37.9,24.1,57,29.86,10.0,NNE,12.7,-,N/A,,Mostly Cloudy,20,2013-02-16 18:53:00
2:53 PM,37.0,23.0,57,29.85,10.0,North,10.4,-,N/A,,Mostly Cloudy,10,2013-02-16 19:53:00
3:53 PM,36.0,21.9,57,29.85,10.0,North,9.2,-,N/A,,Overcast,360,2013-02-16 20:53:00
4:53 PM,35.1,21.0,57,29.84,10.0,North,9.2,-,N/A,,Overcast,360,2013-02-16 21:53:00
5:53 PM,34.0,19.9,56,29.84,10.0,North,8.1,-,N/A,,Overcast,360,2013-02-16 22:53:00
6:53 PM,33.1,18.0,54,29.82,10.0,North,8.1,-,N/A,,Overcast,10,2013-02-16 23:53:00
7:53 PM,33.1,17.1,52,29.81,10.0,North,11.5,19.6,N/A,,Overcast,360,2013-02-17 00:53:00
8:53 PM,32.0,15.1,50,29.81,10.0,North,10.4,-,N/A,,Overcast,10,2013-02-17 01:53:00
9:53 PM,32.0,16.0,52,29.79,10.0,North,9.2,-,N/A,,Overcast,10,2013-02-17 02:53:00
10:53 PM,30.9,12.0,46,29.77,10.0,North,13.8,28.8,N/A,,Overcast,10,2013-02-17 03:53:00
11:53 PM,30.0,10.0,43,29.75,10.0,North,16.1,23.0,N/A,,Overcast,10,2013-02-17 04:53:00